sat.trackr.live / text

‹ back to catalog

TIANYAN 01

NORAD 44881 · 2019-093C

PAYLOAD ACTIVE UNKNOWN

§ Identity

Operator
Country
PRC
Launch date
2019-12-20
Launch site
TAISC
Launch vehicle
Mass (kg)
RCS (m²)

Purposes: comms

External: N2YO · Heavens-Above · Gunter

§ Orbital elements

Epoch: 2026-05-25T03:47:42.077760Z

Period
96.87 min
Inclination
97.7529°
Eccentricity
0.0014069
Mean motion
14.86474737 rev/d
Perigee alt
599.1 km
Apogee alt
618.8 km
Semi-major
6,987.1 km
B*
1.2400e-4
RAAN
217.9513°
Arg perigee
157.0706°
Mean anomaly
203.1141°
Rev number
34,799

§ Raw data

TIANYAN 011 44881U 19093C   26145.15812590  .00001044  00000+0  12400-3 0  99942 44881  97.7529 217.9513 0014069 157.0706 203.1141 14.86474737347995

JSON: /api/v1/satellites/44881 · /tle

For live sub-satellite position, see the globe view (requires WebGL).

§ Visibility from observer

Set your observer location to see the next 7 days of passes ≥ 10°. The values pass through the URL so the page stays shareable.

No JS? Fill the form by hand. The geolocation button needs JavaScript.

§ Radio — SatNOGS DB

ModeDescriptionDownlinkUplink
USB Mode U/V Linear Transponder 145.915 MHz–145.935 MHz 435.270 MHz–435.290 MHz
CW Mode V CW TLM 145.910 MHz
GMSK Mode V GMSK4k8 AX.25 TLM 145.890 MHz
FM S-band telemetry 2.278 GHz
FM Transmitter 401.545-401.555 401.550 MHz

5 transmitters · refreshed weekly from db.satnogs.org